METEOR 2-7 DEB, 43302

Orbit data source: Space-Track

METEOR 2-7 DEB, 43302 is space debris in LEO originally from a launch on Thu, 14 May 1981 UTC launched from the Plesetsk Missile And Space Complex (PKMTR). Debris objects in space refer to the collection of defunct objects orbiting the Earth. Examples of debris include non-operational satellites, rocket bodies, and fragments generated from explosions, collisions, or faulty payload assembly.

Loading next visibility...
Identifier
43302, 1981-043Z
Orbit
LEO
Country
Flag of CISCIS
Related business
Manufacturer
Unknown
Mission
Spacecraft
Bus & Motor
Unknown
Mass
Unknown
Launch date (UTC)
1981-05-14 (44 years ago)
Launch vehicle
Unknown
Launch site
Plesetsk Missile And Space Complex (PKMTR)
Object type
Payload
Rocket body
Debris
Shape & HBR
Unknown shape, 0.1 m
Radar Cross Section
Small (<0.1 m²)

Expand to show TLE details & history
Last TLE update: 2 days ago

TLE from 2 days ago
0 METEOR 2-7 DEB
1 43302U 81043Z   25296.31392141  .00010210  00000-0  36423-2 0  9990
2 43302  81.2527 296.0651 0041385   3.3393 356.8058 14.33634561497607
Epoch: 2025-10-23T07:32Z
TLE epoch observation values (Epoch: 2025-10-23T07:32:02.809Z)
Latitude
-0.00011°
Longitude
151.07842°
Altitude
752.958 km
Speed
7.494 km/s
True Right ascension
19h 44m 15s
True Declination
0° 00' 00"
Sunlit
Object was in daylight at epoch
Visualization orbit readout
Latitude
Unknown
Longitude
Unknown
Altitude
Unknown
Speed
Unknown
Apparent Right ascension
Unknown
Apparent Declination
Unknown
Sunlit
N/A
Visualization observer readout
Local Sidereal Time
18:22:18
Azimuth
Unknown
Elevation
Unknown
Doppler factor
Unknown
Orbital elements
Apogee altitude
806.36 km
Perigee altitude
747.139 km
Semi-major axis
7,154.887 km
Eccentricity
0.00414
Inclination
81.2527°
RAAN
296.0651°
Arg. of periapsis
3.3393°
True anomaly
356.77924°
Mean anomaly
356.8058°
Eccentric anomaly
356.79253°
Mean motion
3.58624 °/min
Orbital period
100.38 mins
BSTAR
0.0036423
Loading maneuver chart data...
Computing Atmospheric mass density...
Loading historical data...
Loading historical data...
Loading historical data...
Loading historical data...
Loading historical data...
Loading historical data...
Loading historical data...

Documentation

Showing up to 5 results
|